Weather in Oranienburg

Germany     52°45′13″N   13°14′10″E
temp.,
°C
wind,
m/s
gust,
m/s
humid.,
%
clouds,
%
prec.,
mm/h
press.,
hPa
HPBL,
m
29 may, sun
sun2923:00+9w4117630 0.0 1013558
02:00+7wsw4109032 0.0 1013380
05:00+6wsw399837 0.0 1012290
08:00+9wsw3778100 0.0 1011692
11:00+12wsw457099 0.2 10121011
14:00+14wsw345771 0.4 10111408
17:00+16wsw3448100 0.2 10101882
20:00+12w357613 0.5 1010205
30 may, mon
mon3023:00+8wsw22935 0.1 101136
02:00+7w23969 0.1 101151
05:00+7wsw239790 0.0 101168
08:00+10w368393 0.1 1012354
11:00+11w466490 0.0 1013783
14:00+15w5547100 0.1 10131894
17:00+12w4666100 0.1 10141065
20:00+12wnw3670100 0.1 1015716
31 may, tue
tue3123:00+10w3981100 0.1 1016482
02:00+9w3679100 0.1 1017300
05:00+8w248665 0.0 101796
08:00+11w2369100 0.0 1018383
11:00+17wsw114878 0.0 10171336
14:00+18ssw2338100 0.0 10152244
17:00+19ssw2334100 0.0 10152102
20:00+16wsw2351100 0.0 101470
1 june, wed
wed123:00+10sw228313 0.0 101532
02:00+11s1174100 0.0 101519
05:00+11wsw2576100 0.0 1015174
08:00+13wsw356898 0.0 1015449
11:00+17wsw3551100 0.0 10151356
14:00+12w4583100 0.6 1015411
17:00+16w4660100 0.3 10131382
20:00+13w2584100 1.8 1013213
2 june, thu
thu223:00+10wsw3993100 0.5 1014262
02:00+10w489667 0.6 1015320
05:00+8w379825 0.1 1017225
08:00+11w478347 0.1 1019441
11:00+16w57510 0.0 10201438
14:00+18w674274 0.0 10202035
17:00+17wnw465277 0.0 10201512
20:00+15w376269 0.0 1020405